Retour au catalogue

TITAN 4B CENTAUR R/B

ActifGEO
NORAD 25337·ROCKET BODY·🇺🇸 United States

Lancé May 9, 1998 depuis Cape Canaveral Space Force Station

Loading…

TLE

FraisSource: Space-Track

Époque: Sep 13, 2026, 14:03 UTC

1 25337U 98029B   26256.58554253 -.00000310  00000-0  00000+0 0  9990
2 25337   7.5698 342.2869 0046925 180.4621 179.5299  1.00272951 26736

Suivez TITAN 4B CENTAUR R/B en temps réel avec AllMySat

Download on the App Store